{"data":{"norad_id":56527,"intl_designator":"2023-065AA","name":"STARLINK-6335","alt_names":[],"object_type":"PAYLOAD","status":"ACTIVE","operator":null,"country":"US","launch_date":"2023-05-14","launch_site_code":"AFETR","launch_vehicle":null,"mission":null,"orbit_class":"UNKNOWN","rcs_meters":null,"size_class":null,"mass_kg":null,"dimensions":null,"purposes":["comms"],"wikipedia_slug":null,"has_3d_model":false,"image_url":null,"decayed_at":null,"tle_current":{"epoch":"2026-05-25T00:55:36.253056Z","epoch_age_seconds":68382,"freshness":"FRESH","line1":"1 56527U 23065AA  26145.03861404  .00000671  00000+0  33901-4 0  9998","line2":"2 56527  43.0012 144.9186 0000804 285.2480  74.8283 15.27573276168238","mean_motion":15.27573276,"eccentricity":8.04e-5,"inclination_deg":43.0012,"raan_deg":144.9186,"arg_perigee_deg":285.248,"mean_anomaly_deg":74.8283,"bstar":3.3901e-5,"rev_number":16823,"period_min":94.26716365258,"perigee_km":482.51758920755,"apogee_km":483.62087116936,"semimajor_km":6861.2062301885,"source":"CELESTRAK","updated_at":"2026-05-25T13:38:18.111157Z"}}}